Shannon, GA

1:26 AM EDT on September 26, 2016 (GMT -0400)
Russell

Weather History for KRMG - December, 2012

Change the Weather History Date:

Wednesday, December 12, 2012

  Actual Average Record
Temperature  
Mean Temperature 44 °F 43 °F  
Max Temperature 52 °F 53 °F 74 °F (2015)
Min Temperature 36 °F 33 °F 25 °F (2014)
Degree Days  
Heating Degree Days 21 22  
Month to date heating degree days 249  
Since 1 July heating degree days 856  
Moisture  
Dew Point 30 °F    
Average Humidity 63    
Maximum Humidity 76    
Minimum Humidity 44    
Precipitation  
Precipitation 0.00 in 0.17 in 0.27 in (2006)
Month to date precipitation 2.16  
Year to date precipitation 49.70  
Snow  
Snow 0.00 in - - ()
Month to date snowfall  
Since 1 July snowfall  
Snow Depth -    
Sea Level Pressure  
Sea Level Pressure 30.22 in    
Wind  
Wind Speed 6 mph (North)    
Max Wind Speed 10 mph    
Max Gust Speed -    
Visibility 10 miles    
Events      
T = Trace of Precipitation, MM = Missing Value Source: NWS Daily Summary

Daily Weather History Graph

Daily Weather History Graph

Search for Another Location

Airport or City:

Trip Planner

Search our weather history database for the weather conditions in past years. The results will help you decide how hot, cold, wet, or windy it might be!

Date:

Astronomy

Dec. 12, 2012 Rise Set
Actual Time 7:37 AM EST 5:31 PM EST
Civil Twilight 7:10 AM EST 5:59 PM EST
Nautical Twilight 6:38 AM EST 6:30 PM EST
Astronomical Twilight 6:08 AM EST 7:01 PM EST
Moon 6:42 AM EST (12/12) 5:06 PM EST (12/12)
Length of Visible Light 10h 49m
Length of Day
9h 53m
Waning Crescent, 1% of the Moon is Illuminated
Dec 12
Waning Crescent
Dec 13
New
Dec 20
First Quarter
Dec 28
Full
Jan 4
Last Quarter

Hourly Weather History & Observations

Time (EST) Temp. Windchill Dew Point Humidity Pressure Visibility Wind Dir Wind Speed Gust Speed Precip Events Conditions
12:53 AM 37.9 °F 32.7 °F 30.0 °F 73% 30.17 in 10.0 mi North 6.9 mph - N/A   Clear
1:53 AM 37.0 °F 33.3 °F 30.0 °F 76% 30.18 in 10.0 mi North 4.6 mph - N/A   Clear
2:53 AM 37.0 °F 32.4 °F 30.0 °F 76% 30.19 in 10.0 mi North 5.8 mph - N/A   Clear
3:53 AM 37.0 °F 31.0 °F 28.9 °F 73% 30.19 in 10.0 mi North 8.1 mph - N/A   Clear
4:53 AM 37.0 °F 32.4 °F 28.9 °F 73% 30.20 in 10.0 mi North 5.8 mph - N/A   Partly Cloudy
5:53 AM 36.0 °F 30.3 °F 28.9 °F 76% 30.20 in 10.0 mi North 6.9 mph - N/A   Clear
6:53 AM 36.0 °F 32.1 °F 28.9 °F 76% 30.21 in 10.0 mi North 4.6 mph - N/A   Clear
7:53 AM 36.0 °F 33.3 °F 28.9 °F 76% 30.23 in 10.0 mi North 3.5 mph - N/A   Clear
8:53 AM 37.0 °F 31.6 °F 28.9 °F 73% 30.24 in 10.0 mi North 6.9 mph - N/A   Clear
9:53 AM 42.1 °F 36.1 °F 30.9 °F 65% 30.24 in 10.0 mi NNE 10.4 mph - N/A   Clear
10:53 AM 43.0 °F 38.2 °F 30.9 °F 62% 30.25 in 10.0 mi North 8.1 mph - N/A   Clear
11:53 AM 46.0 °F 43.1 °F 32.0 °F 58% 30.23 in 10.0 mi Variable 5.8 mph - N/A   Clear
12:53 PM 48.0 °F - 33.1 °F 56% 30.23 in 10.0 mi NNW 8.1 mph - N/A   Clear
1:53 PM 50.0 °F - 34.0 °F 54% 30.20 in 10.0 mi North 6.9 mph - N/A   Clear
2:53 PM 51.1 °F - 34.0 °F 52% 30.19 in 10.0 mi North 4.6 mph - N/A   Clear
3:53 PM 52.0 °F - 34.0 °F 50% 30.20 in 10.0 mi North 8.1 mph - N/A   Partly Cloudy
4:53 PM 50.0 °F - 33.1 °F 52% 30.22 in 10.0 mi NNE 9.2 mph - N/A   Mostly Cloudy
5:53 PM 48.0 °F - 32.0 °F 54% 30.24 in 10.0 mi North 6.9 mph - N/A   Overcast
6:53 PM 46.9 °F - 28.0 °F 48% 30.25 in 10.0 mi North 9.2 mph - N/A   Overcast
7:53 PM 44.1 °F 41.5 °F 28.0 °F 53% 30.26 in 10.0 mi North 4.6 mph - N/A   Clear
8:53 PM 39.9 °F 37.8 °F 28.9 °F 65% 30.24 in 10.0 mi NNE 3.5 mph - N/A   Clear
9:53 PM 37.9 °F - 28.9 °F 70% 30.24 in 10.0 mi Calm Calm - N/A   Clear
10:53 PM 42.1 °F 38.4 °F 28.9 °F 60% 30.27 in 10.0 mi NNW 5.8 mph - N/A   Mostly Cloudy
11:53 PM 42.1 °F 37.7 °F 28.9 °F 60% 30.27 in 10.0 mi NNW 6.9 mph - N/A   Overcast